Hourly Data Report for April 18, 2016

All times are specified in Local Standard Time (LST). Add 1 hour to adjust for Daylight Saving Time where and when it is observed.

EMERSON AUTO
MANITOBA

49°00'00.000" N
97°14'15.000" W
242.00 m
5020881
71560
WEX

Download Data

Hourly Data (April 2016)
Hourly Data Report for April 18, 2016
Temp Definition
°C
Dew Point Temp Definition
°C
Rel Hum Definition
%
Wind Dir Definition
10's deg

Wind Spd Definition
km/h
Visibility Definition
km
Stn Press Definition
kPa
Hmdx Definition


Wind Chill Definition


Weather Definition


TIME
00:00 3.0 2.9 100 2 17   100.15     LegendNANA
01:00 2.7 2.7 100 1 15   100.18     LegendNANA
02:00 2.5 2.5 100 3 19   100.13     LegendNANA
03:00 2.4 2.3 99 3 21   100.10     LegendNANA
04:00 2.4 2.2 99 4 16   100.14     LegendNANA
05:00 2.2 2.1 99 3 17   100.14     LegendNANA
06:00 2.2 2.0 99 2 19   100.19     LegendNANA
07:00 2.3 2.0 98 2 23   100.20     LegendNANA
08:00 2.9 2.3 96 4 21   100.23     LegendNANA
09:00 3.4 2.6 94 4 18   100.30     LegendNANA
10:00 3.9 3.1 94 4 18   100.31     LegendNANA
11:00 4.4 3.5 94 3 19   100.27     LegendNANA
12:00 6.2 4.8 91 4 23   100.25     LegendNANA
13:00 7.5 6.1 91 4 21   100.20     LegendNANA
14:00 9.4 6.0 79 5 22   100.13     LegendNANA
15:00 11.2 7.2 77 7 18   100.07     LegendNANA
16:00 12.5 6.7 68 7 21   100.02     LegendNANA
17:00 13.5 6.4 62 7 20   99.96     LegendNANA
18:00 13.2 5.7 60 8 15   99.93     LegendNANA
19:00 11.9 5.2 64 9 13   99.93     LegendNANA
20:00 9.4 5.1 74 8 7   99.95     LegendNANA
21:00 7.6 4.1 78 7 8   99.95     LegendNANA
22:00 6.5 3.5 81 6 10   99.92     LegendNANA
23:00 5.4 2.5 81 6 11   99.89     LegendNANA

Notes on Data Quality.

Legend

  • E = Estimated
  • M = Missing
  • NA = Not Available
  • ‡ = Partner data that is not subject to review by the National Climate Archives
Date modified: